CW6344 Weather Reports


Display with metric or nautical units.
time (UTC)temp
F
wind
direction
speed
MPH
gust
MPH
rain 1hr
in
rain 24hr
in
rain mn
in
humidity
%
barometer
mb
20260901141440 85 290 0.0 2.0 0.00 0.00 0.00 79 1016.9
20260901140510 84 321 1.0 1.0 0.00 0.00 0.00 81 1017.0
20260901135440 82 233 0.0 0.0 0.00 0.00 0.00 84 1017.1
20260901134510 81 180 0.0 0.0 0.00 0.00 0.00 84 1017.1
20260901133440 81 178 0.0 3.0 0.00 0.00 0.00 85 1017.1
20260901132510 80 222 0.0 0.0 0.00 0.00 0.00 86 1017.2
20260901131440 80 222 0.0 0.0 0.00 0.00 0.00 86 1017.2
20260901130440 80 222 0.0 0.0 0.00 0.00 0.00 86 1017.3
20260901125441 80 222 0.0 0.0 0.00 0.00 0.00 86 1017.5
20260901124440 80 222 0.0 0.0 0.00 0.00 0.00 86 1017.5
20260901123440 80 223 1.0 2.0 0.00 0.00 0.00 86 1017.4
20260901122441 78 202 0.0 2.0 0.00 0.00 0.00 88 1017.5
20260901121441 78 246 0.0 0.0 0.00 0.00 0.00 89 1017.4
20260901120440 77 246 0.0 0.0 0.00 0.00 0.00 89 1017.4
20260901115441 76 253 0.0 0.0 0.00 0.00 0.00 90 1017.3
20260901114441 76 253 0.0 0.0 0.00 0.00 0.00 91 1017.3
20260901112441 75 195 0.0 0.0 0.00 0.00 0.00 92 1017.1
20260901111441 74 225 0.0 0.0 0.00 0.00 0.00 92 1017.0
20260901110441 74 225 0.0 0.0 0.00 0.00 0.00 92 1016.8
20260901105441 74 213 0.0 0.0 0.00 0.00 0.00 91 1016.7
20260901104441 74 17 0.0 0.0 0.00 0.00 0.00 91 1016.6
20260901103441 74 345 0.0 0.0 0.00 0.00 0.00 91 1016.7
20260901102441 74 13 0.0 0.0 0.00 0.00 0.00 91 1016.8
20260901101441 74 13 0.0 0.0 0.00 0.00 0.00 91 1016.9
20260901100441 74 13 0.0 0.0 0.00 0.00 0.00 91 1017.0
20260901095441 74 13 0.0 0.0 0.00 0.00 0.00 91 1016.9
20260901094440 74 13 0.0 0.0 0.00 0.00 0.00 91 1016.9
20260901092441 74 13 0.0 0.0 0.00 0.00 0.00 91 1016.8
20260901091441 75 13 0.0 0.0 0.00 0.00 0.00 91 1016.8
20260901090441 75 13 0.0 0.0 0.00 0.00 0.00 90 1016.7
20260901085441 75 13 0.0 0.0 0.00 0.00 0.00 90 1016.8
20260901084441 75 13 0.0 0.0 0.00 0.00 0.00 90 1016.7
20260901083441 75 13 0.0 0.0 0.00 0.00 0.00 90 1016.8
20260901082441 75 13 0.0 0.0 0.00 0.00 0.00 90 1016.8
20260901080441 75 13 0.0 0.0 0.00 0.00 0.00 90 1016.9
20260901075441 76 13 0.0 0.0 0.00 0.00 0.00 90 1016.9
20260901074441 76 13 0.0 0.0 0.00 0.00 0.00 90 1017.0
20260901073441 76 13 0.0 0.0 0.00 0.00 0.00 90 1017.0
20260901072441 76 13 0.0 0.0 0.00 0.00 0.00 90 1017.0
20260901071441 76 13 0.0 0.0 0.00 0.00 0.00 90 1017.1
20260901070441 76 13 0.0 0.0 0.00 0.00 0.00 90 1017.0
20260901065441 76 13 0.0 0.0 0.00 0.00 0.00 91 1017.1
20260901064441 76 13 0.0 0.0 0.00 0.00 0.00 91 1017.1
20260901063441 76 13 0.0 0.0 0.00 0.00 0.00 91 1017.2
20260901062441 76 13 0.0 0.0 0.00 0.00 0.00 91 1017.3
20260901060441 77 13 0.0 0.0 0.00 0.00 0.00 90 1017.3
20260901055441 77 13 0.0 0.0 0.00 0.00 0.00 90 1017.4
20260901054441 77 13 0.0 0.0 0.00 0.00 0.00 90 1017.6
20260901053441 77 13 0.0 0.0 0.00 0.00 0.00 90 1017.8
20260901052511 77 13 0.0 0.0 0.00 0.00 0.00 90 1017.8
20260901051441 77 13 0.0 0.0 0.00 0.00 0.00 91 1017.9
20260901050441 77 13 0.0 0.0 0.00 0.00 0.00 91 1017.8
20260901045441 77 13 0.0 0.0 0.00 0.00 0.00 91 1017.9
20260901044511 77 13 0.0 0.0 0.00 0.00 0.00 91 1017.9
20260901043441 77 13 0.0 0.0 0.00 0.00 0.00 91 1018.0
20260901042441 77 13 0.0 0.0 0.00 0.00 0.00 91 1018.0
20260901041441 77 13 0.0 0.0 0.00 0.00 0.00 91 1018.0
20260901040441 78 13 0.0 0.0 0.00 0.00 0.00 91 1018.0
20260901034441 77 13 0.0 0.0 0.00 0.00 0.00 91 1018.0
20260901033441 77 13 0.0 0.0 0.00 0.00 0.00 91 1017.9
20260901032441 77 13 0.0 0.0 0.00 0.00 0.00 91 1017.8
20260901030441 77 13 0.0 0.0 0.00 0.00 0.00 91 1017.8
20260901025441 78 13 0.0 0.0 0.00 0.00 0.00 91 1017.7
20260901024441 77 13 0.0 0.0 0.00 0.00 0.00 91 1017.7
20260901023441 78 13 0.0 0.0 0.00 0.00 0.00 91 1017.7
20260901022441 77 13 0.0 0.0 0.00 0.00 0.00 91 1017.8
20260901021441 78 13 0.0 0.0 0.00 0.00 0.00 91 1017.8
20260901020441 78 13 0.0 0.0 0.00 0.00 0.00 91 1017.8
20260901015441 78 13 0.0 0.0 0.00 0.00 0.00 91 1018.0
20260901014441 77 13 0.0 0.0 0.00 0.00 0.00 91 1018.0
20260901013441 77 13 0.0 0.0 0.00 0.00 0.00 91 1017.9
20260901012511 77 13 0.0 0.0 0.00 0.00 0.00 90 1017.9
20260901011441 78 13 0.0 0.0 0.00 0.00 0.00 90 1017.8
20260901010441 78 13 0.0 0.0 0.00 0.00 0.00 90 1017.8
20260901005441 78 13 0.0 0.0 0.00 0.00 0.00 90 1017.9
20260901004441 78 13 0.0 0.0 0.00 0.00 0.00 90 1017.9
20260901003441 78 13 0.0 0.0 0.00 0.00 0.00 90 1017.9
20260901002441 78 13 0.0 0.0 0.00 0.00 0.00 90 1017.9
20260901001441 78 13 0.0 0.0 0.00 0.00 0.00 89 1017.9
20260901000443 79 13 0.0 0.0 0.00 0.00 0.00 89 1017.8
20260831234441 80 13 0.0 0.0 0.00 0.00 0.00 88 1017.7
20260831233441 80 13 0.0 0.0 0.00 0.00 0.00 87 1017.8
20260831232441 80 13 0.0 0.0 0.00 0.00 0.00 87 1017.9
20260831231441 81 13 0.0 0.0 0.00 0.00 0.00 87 1017.8
20260831230441 81 13 0.0 0.0 0.00 0.00 0.00 86 1017.9
20260831225441 81 13 0.0 0.0 0.00 0.00 0.00 86 1017.7
20260831224441 81 13 0.0 0.0 0.00 0.00 0.00 86 1017.7
20260831223441 82 13 0.0 0.0 0.00 0.00 0.00 86 1017.9
20260831222511 82 13 0.0 0.0 0.00 0.00 0.00 86 1018.0
20260831221441 82 13 0.0 0.0 0.00 0.00 0.00 86 1018.0
20260831220441 82 13 0.0 0.0 0.00 0.00 0.00 85 1018.0
20260831214441 83 13 0.0 0.0 0.00 0.00 0.00 83 1018.1
20260831213441 83 13 0.0 0.0 0.00 0.00 0.00 83 1018.1
20260831212441 83 13 0.0 0.0 0.00 0.00 0.00 83 1018.1
20260831210441 84 13 0.0 0.0 0.00 0.00 0.00 81 1017.9
20260831204441 83 13 0.0 0.0 0.00 0.00 0.00 83 1017.6
20260831202442 83 13 0.0 0.0 0.00 0.00 0.00 83 1017.7
20260831201441 83 13 0.0 0.0 0.00 0.00 0.00 82 1017.8
20260831200441 83 13 0.0 1.0 0.00 0.00 0.00 81 1018.0
20260831195441 85 13 0.0 0.0 0.00 0.00 0.00 78 1017.8
20260831194442 86 57 0.0 0.0 0.00 0.00 0.00 79 1017.8
20260831193442 86 61 1.0 2.0 0.00 0.00 0.00 78 1017.9
20260831192442 86 61 0.0 1.0 0.00 0.00 0.00 78 1018.1
20260831191442 85 75 0.0 2.0 0.00 0.00 0.00 78 1018.2
20260831190442 85 98 0.0 2.0 0.00 0.00 0.00 78 1018.1
20260831185442 85 57 0.0 1.0 0.00 0.00 0.00 78 1018.1
20260831184511 84 57 1.0 3.0 0.00 0.00 0.00 80 1018.3
20260831182442 85 28 0.0 0.0 0.00 0.00 0.00 76 1018.2
20260831181442 87 26 0.0 1.0 0.00 0.00 0.00 75 1018.3
20260831180442 86 26 1.0 1.0 0.00 0.00 0.00 73 1018.4
20260831175442 86 24 0.0 2.0 0.00 0.00 0.00 76 1018.4
20260831174442 86 71 1.0 1.0 0.00 0.00 0.00 75 1018.4
20260831173442 86 306 0.0 0.0 0.00 0.00 0.00 75 1018.5
20260831172512 86 303 0.0 0.0 0.00 0.00 0.00 76 1018.5
20260831171442 86 302 0.0 1.0 0.00 0.00 0.00 77 1018.8
20260831170442 86 164 0.0 0.0 0.00 0.00 0.00 75 1018.7
20260831165442 85 58 0.0 1.0 0.00 0.00 0.00 76 1018.8
20260831164442 85 48 0.0 0.0 0.00 0.00 0.00 78 1018.9
20260831163441 85 49 0.0 1.0 0.00 0.00 0.00 78 1018.9
20260831162442 84 216 2.0 2.0 0.00 0.00 0.00 78 1019.0
20260831160442 84 80 0.0 0.0 0.00 0.00 0.00 79 1019.0
20260831155442 83 74 0.0 0.0 0.00 0.00 0.00 79 1019.1
20260831154442 83 74 1.0 1.0 0.00 0.00 0.00 79 1019.1
20260831153442 83 74 0.0 0.0 0.00 0.00 0.00 78 1019.0
20260831152442 83 71 1.0 1.0 0.00 0.00 0.00 79 1018.9
20260831150512 82 102 0.0 2.0 0.00 0.00 0.00 80 1019.0
20260831145442 82 32 0.0 2.0 0.00 0.00 0.00 81 1019.0
20260831144542 82 213 0.0 0.0 0.00 0.00 0.00 81 1019.1
20260831143442 82 213 0.0 0.0 0.00 0.00 0.00 81 1019.1
20260831142442 81 300 0.0 0.0 0.00 0.00 0.00 82 1019.0